When you browse on this site, cookies collect data to enhance your experience and personalize the content and advertising you see.
Visit our Privacy Policy to learn more. By continuing to use the site, you agree to this use of cookies and data.
  • In Latvia
  • List of Countries
  • For 7 days
  • Water Temperature
  • Satellite Maps
  • Weather Map
  • Weather Widgets
  • user-avatar
    Login

    Hourly Weather Mingir

    Today, 25 March, Monday

    Time Temperature Precipitation Wind Pressure Humidity
    00:00 +12°C° 0 mm 1 mps 756 mmHg 73%
    01:00 +12°C° 0 mm 1 mps 756 mmHg 73%
    02:00 +11°C° 0 mm 1 mps 756 mmHg 72%
    03:00 +10°C° 0 mm 1 mps 755 mmHg 72%
    04:00 +10°C° 0 mm 1 mps 755 mmHg 72%
    05:00 +8°C° 0 mm 0 mps 754 mmHg 73%
    06:00 +10°C° 0 mm 1 mps 754 mmHg 70%
    07:00 +10°C° 0 mm 2 mps 753 mmHg 68%
    08:00 +11°C° 0 mm 3 mps 753 mmHg 66%
    09:00 +13°C° 0 mm 4 mps 752 mmHg 60%
    10:00 +15°C° 0 mm 5 mps 752 mmHg 54%
    11:00 +17°C° 0 mm 7 mps 751 mmHg 49%
    12:00 +19°C° 0 mm 6 mps 750 mmHg 44%
    13:00 +20°C° 0 mm 6 mps 750 mmHg 40%
    14:00 +21°C° 0 mm 6 mps 749 mmHg 36%
    15:00 +21°C° 0 mm 6 mps 749 mmHg 38%
    16:00 +20°C° 0 mm 5 mps 749 mmHg 40%
    17:00 +19°C° 0 mm 4 mps 748 mmHg 42%
    18:00 +18°C° 0 mm 4 mps 749 mmHg 51%
    19:00 +15°C° 0 mm 4 mps 749 mmHg 61%
    20:00 +13°C° 0 mm 4 mps 749 mmHg 71%
    21:00 +12°C° 0 mm 4 mps 750 mmHg 74%
    22:00 +11°C° 0 mm 3 mps 750 mmHg 77%
    23:00 +10°C° 0 mm 3 mps 751 mmHg 80%

    Tomorrow, 26 March, Tuesday

    Time Temperature Precipitation Wind Pressure Humidity
    00:00 +10°C° 0 mm 4 mps 751 mmHg 79%
    01:00 +8°C° 0 mm 4 mps 751 mmHg 77%
    02:00 +8°C° 0 mm 4 mps 752 mmHg 75%
    03:00 +8°C° 0 mm 3 mps 752 mmHg 76%
    04:00 +8°C° 0 mm 3 mps 752 mmHg 76%
    05:00 +7°C° 0 mm 2 mps 752 mmHg 76%
    06:00 +7°C° 0 mm 3 mps 753 mmHg 74%
    07:00 +8°C° 0 mm 3 mps 753 mmHg 71%
    08:00 +7°C° 0 mm 4 mps 754 mmHg 68%
    09:00 +8°C° 0 mm 5 mps 754 mmHg 63%
    10:00 +9°C° 0 mm 5 mps 755 mmHg 59%
    11:00 +10°C° 0 mm 6 mps 755 mmHg 55%
    12:00 +11°C° 0 mm 6 mps 755 mmHg 51%
    13:00 +12°C° 0 mm 5 mps 755 mmHg 47%
    14:00 +12°C° 0 mm 5 mps 755 mmHg 43%
    15:00 +12°C° 0 mm 5 mps 755 mmHg 43%
    16:00 +12°C° 0 mm 5 mps 755 mmHg 42%
    17:00 +12°C° 0 mm 5 mps 755 mmHg 41%
    18:00 +11°C° 0 mm 4 mps 756 mmHg 45%
    19:00 +9°C° 0 mm 3 mps 756 mmHg 48%
    20:00 +8°C° 0 mm 2 mps 756 mmHg 52%
    21:00 +8°C° 0 mm 2 mps 757 mmHg 53%
    22:00 +7°C° 0 mm 2 mps 757 mmHg 54%
    23:00 +7°C° 0 mm 2 mps 757 mmHg 55%

    Day after tomorrow, 27 March, Wednesday

    Time Temperature Precipitation Wind Pressure Humidity
    00:00 +7°C° 0 mm 2 mps 757 mmHg 56%
    01:00 +6°C° 0 mm 2 mps 757 mmHg 56%
    02:00 +6°C° 0 mm 2 mps 757 mmHg 57%
    03:00 +6°C° 0.1 mm 2 mps 757 mmHg 59%
    04:00 +5°C° 0.1 mm 3 mps 758 mmHg 60%
    05:00 +5°C° 0.1 mm 4 mps 758 mmHg 61%
    06:00 +3°C° 0 mm 6 mps 758 mmHg 53%
    07:00 +2°C° 0 mm 8 mps 759 mmHg 46%
    08:00 +1°C° 0 mm 10 mps 760 mmHg 38%
    09:00 +2°C° 0 mm 9 mps 760 mmHg 40%
    10:00 +3°C° 0 mm 9 mps 761 mmHg 43%
    11:00 +5°C° 0 mm 9 mps 761 mmHg 45%
    12:00 +5°C° 0 mm 9 mps 761 mmHg 43%
    13:00 +6°C° 0 mm 8 mps 762 mmHg 41%
    14:00 +7°C° 0 mm 8 mps 762 mmHg 39%
    15:00 +6°C° 0 mm 8 mps 762 mmHg 38%
    16:00 +6°C° 0 mm 8 mps 762 mmHg 37%
    17:00 +6°C° 0 mm 7 mps 762 mmHg 36%
    18:00 +5°C° 0 mm 6 mps 763 mmHg 40%
    19:00 +5°C° 0 mm 5 mps 764 mmHg 44%
    20:00 +4°C° 0 mm 4 mps 764 mmHg 48%
    21:00 +3°C° 0 mm 4 mps 765 mmHg 49%
    22:00 +3°C° 0 mm 4 mps 765 mmHg 51%
    23:00 +2°C° 0 mm 3 mps 766 mmHg 53%

    28 March, Thursday

    Time Temperature Precipitation Wind Pressure Humidity
    00:00 +2°C° 0 mm 3 mps 766 mmHg 56%
    01:00 +1°C° 0 mm 3 mps 766 mmHg 58%
    02:00 +1°C° 0 mm 3 mps 766 mmHg 60%
    03:00 +1°C° 0 mm 3 mps 766 mmHg 62%
    04:00 0°C° 0 mm 3 mps 766 mmHg 65%
    05:00 0°C° 0 mm 3 mps 766 mmHg 67%
    06:00 +1°C° 0 mm 3 mps 767 mmHg 63%
    07:00 0°C° 0 mm 4 mps 767 mmHg 59%
    08:00 +1°C° 0 mm 5 mps 767 mmHg 55%
    09:00 +2°C° 0 mm 5 mps 768 mmHg 50%
    10:00 +3°C° 0 mm 5 mps 768 mmHg 44%
    11:00 +6°C° 0 mm 5 mps 768 mmHg 38%
    12:00 +6°C° 0 mm 5 mps 768 mmHg 37%
    13:00 +6°C° 0 mm 5 mps 768 mmHg 36%
    14:00 +7°C° 0 mm 5 mps 768 mmHg 35%
    15:00 +6°C° 0 mm 5 mps 767 mmHg 35%
    16:00 +6°C° 0 mm 5 mps 767 mmHg 36%
    17:00 +6°C° 0 mm 4 mps 767 mmHg 36%
    18:00 +5°C° 0 mm 4 mps 768 mmHg 39%
    19:00 +4°C° 0 mm 3 mps 768 mmHg 43%
    20:00 +4°C° 0 mm 2 mps 769 mmHg 47%
    21:00 +4°C° 0 mm 2 mps 769 mmHg 48%
    22:00 +3°C° 0 mm 2 mps 769 mmHg 50%
    23:00 +4°C° 0 mm 1 mps 769 mmHg 52%

    29 March, Friday

    Time Temperature Precipitation Wind Pressure Humidity
    00:00 +4°C° 0 mm 1 mps 769 mmHg 53%
    01:00 +3°C° 0 mm 1 mps 769 mmHg 53%
    02:00 +3°C° 0 mm 1 mps 770 mmHg 54%
    03:00 +3°C° 0 mm 1 mps 769 mmHg 55%
    04:00 +2°C° 0 mm 1 mps 769 mmHg 56%
    05:00 +2°C° 0 mm 1 mps 769 mmHg 58%
    06:00 +2°C° 0 mm 2 mps 769 mmHg 54%
    07:00 +3°C° 0 mm 2 mps 769 mmHg 50%
    08:00 +4°C° 0 mm 2 mps 769 mmHg 47%
    09:00 +5°C° 0 mm 2 mps 769 mmHg 41%
    10:00 +7°C° 0 mm 3 mps 768 mmHg 36%
    11:00 +8°C° 0 mm 3 mps 768 mmHg 31%
    12:00 +8°C° 0 mm 4 mps 767 mmHg 30%
    13:00 +10°C° 0 mm 4 mps 767 mmHg 30%
    14:00 +11°C° 0 mm 4 mps 766 mmHg 29%
    15:00 +11°C° 0 mm 4 mps 765 mmHg 32%
    16:00 +10°C° 0 mm 5 mps 765 mmHg 35%
    17:00 +10°C° 0 mm 5 mps 764 mmHg 37%
    18:00 +10°C° 0 mm 4 mps 764 mmHg 43%
    19:00 +8°C° 0 mm 4 mps 764 mmHg 49%
    20:00 +8°C° 0 mm 3 mps 765 mmHg 55%
    21:00 +7°C° 0 mm 3 mps 764 mmHg 58%
    22:00 +7°C° 0 mm 3 mps 764 mmHg 60%
    23:00 +6°C° 0 mm 4 mps 764 mmHg 63%

    30 March, Saturday

    Time Temperature Precipitation Wind Pressure Humidity
    00:00 +6°C° 0 mm 4 mps 763 mmHg 67%
    01:00 +6°C° 0 mm 5 mps 763 mmHg 70%
    02:00 +6°C° 0 mm 5 mps 763 mmHg 74%
    03:00 +4°C° 0 mm 6 mps 763 mmHg 77%
    04:00 +4°C° 0 mm 6 mps 763 mmHg 79%
    05:00 +4°C° 0 mm 6 mps 762 mmHg 81%
    06:00 +5°C° 0 mm 6 mps 763 mmHg 79%
    07:00 +5°C° 0 mm 6 mps 763 mmHg 76%
    08:00 +7°C° 0 mm 6 mps 763 mmHg 73%
    09:00 +8°C° 0 mm 6 mps 763 mmHg 68%
    10:00 +10°C° 0 mm 6 mps 763 mmHg 62%
    11:00 +13°C° 0 mm 6 mps 762 mmHg 56%
    12:00 +13°C° 0 mm 6 mps 762 mmHg 53%
    13:00 +14°C° 0 mm 6 mps 761 mmHg 50%
    14:00 +15°C° 0 mm 6 mps 761 mmHg 47%
    15:00 +15°C° 0 mm 6 mps 761 mmHg 47%
    16:00 +15°C° 0 mm 6 mps 760 mmHg 47%
    17:00 +15°C° 0 mm 6 mps 760 mmHg 48%
    18:00 +14°C° 0 mm 5 mps 760 mmHg 52%
    19:00 +13°C° 0 mm 3 mps 760 mmHg 57%
    20:00 +12°C° 0 mm 2 mps 760 mmHg 62%
    21:00 +12°C° 0 mm 2 mps 760 mmHg 63%
    22:00 +10°C° 0 mm 2 mps 760 mmHg 63%
    23:00 +11°C° 0 mm 1 mps 760 mmHg 64%
    Show more